TimeMDT,TemperatureF,Dew PointF,Humidity,Sea Level PressureIn,VisibilityMPH,Wind Direction,Wind SpeedMPH,Gust SpeedMPH,PrecipitationIn,Events,Conditions,WindDirDegrees,DateUTC
12:15 AM,41.0,33.8,76,30.03,10.0,WNW,10.4,-,N/A,,Clear,300,2013-03-14 06:15:00
12:55 AM,37.4,32.0,81,30.04,10.0,West,4.6,-,N/A,,Clear,280,2013-03-14 06:55:00
1:15 AM,39.2,32.0,75,30.04,10.0,WNW,8.1,-,N/A,,Clear,300,2013-03-14 07:15:00
1:35 AM,39.2,33.8,81,30.04,10.0,WNW,8.1,-,N/A,,Clear,300,2013-03-14 07:35:00
1:55 AM,37.4,32.0,81,30.05,10.0,Calm,Calm,-,N/A,Rain,Light Rain,0,2013-03-14 07:55:00
2:15 AM,37.4,32.0,81,30.05,10.0,West,6.9,-,N/A,,Clear,270,2013-03-14 08:15:00
2:35 AM,37.4,32.0,81,30.06,10.0,SW,3.5,-,N/A,,Clear,220,2013-03-14 08:35:00
2:55 AM,37.4,32.0,81,30.07,10.0,West,4.6,-,N/A,,Clear,260,2013-03-14 08:55:00
3:15 AM,32.0,32.0,100,30.07,10.0,SW,6.9,-,N/A,,Clear,220,2013-03-14 09:15:00
3:35 AM,35.6,32.0,87,30.07,10.0,WSW,10.4,-,N/A,,Clear,240,2013-03-14 09:35:00
3:55 AM,35.6,32.0,87,30.06,10.0,WSW,9.2,-,N/A,,Clear,240,2013-03-14 09:55:00
4:15 AM,35.6,32.0,87,30.07,10.0,WSW,10.4,-,N/A,,Clear,240,2013-03-14 10:15:00
4:35 AM,35.6,32.0,87,30.07,10.0,West,3.5,-,N/A,,Clear,260,2013-03-14 10:35:00
4:55 AM,35.6,32.0,87,30.07,10.0,Calm,Calm,-,N/A,,Clear,0,2013-03-14 10:55:00
5:15 AM,35.6,32.0,87,30.08,10.0,WSW,5.8,-,N/A,,Clear,250,2013-03-14 11:15:00
5:35 AM,35.6,32.0,87,30.08,10.0,Calm,Calm,-,N/A,,Clear,0,2013-03-14 11:35:00
5:55 AM,35.6,32.0,87,30.09,10.0,WSW,5.8,-,N/A,,Clear,240,2013-03-14 11:55:00
6:15 AM,35.6,32.0,87,30.09,10.0,WSW,10.4,-,N/A,Rain,Light Rain,240,2013-03-14 12:15:00
6:35 AM,35.6,32.0,87,30.09,10.0,WSW,11.5,-,N/A,,Clear,240,2013-03-14 12:35:00
6:55 AM,37.4,32.0,81,30.09,10.0,WSW,12.7,-,N/A,,Clear,240,2013-03-14 12:55:00
7:15 AM,37.4,32.0,81,30.09,10.0,WSW,10.4,-,N/A,,Clear,240,2013-03-14 13:15:00
7:35 AM,37.4,32.0,81,30.08,10.0,WSW,11.5,-,N/A,,Partly Cloudy,240,2013-03-14 13:35:00
7:55 AM,37.4,32.0,81,30.08,10.0,WSW,11.5,21.9,N/A,,Clear,240,2013-03-14 13:55:00
8:15 AM,39.2,32.0,75,30.08,10.0,SW,10.4,-,N/A,,Clear,230,2013-03-14 14:15:00
8:35 AM,41.0,33.8,76,30.08,10.0,WSW,10.4,-,N/A,,Clear,240,2013-03-14 14:35:00
8:55 AM,42.8,35.6,76,30.08,10.0,WSW,8.1,-,N/A,,Clear,240,2013-03-14 14:55:00
9:15 AM,44.6,35.6,71,30.08,10.0,WSW,9.2,-,N/A,,Clear,240,2013-03-14 15:15:00
9:35 AM,46.4,35.6,66,30.09,10.0,SW,8.1,-,N/A,,Clear,230,2013-03-14 15:35:00
9:55 AM,48.2,37.4,66,30.09,10.0,WSW,9.2,-,N/A,,Clear,240,2013-03-14 15:55:00
10:15 AM,50.0,37.4,62,30.08,10.0,SW,11.5,-,N/A,,Clear,230,2013-03-14 16:15:00
10:35 AM,50.0,37.4,62,30.07,10.0,WSW,11.5,-,N/A,,Clear,240,2013-03-14 16:35:00
10:55 AM,53.6,37.4,54,30.07,10.0,SW,13.8,17.3,N/A,,Clear,230,2013-03-14 16:55:00
11:15 AM,53.6,39.2,58,30.07,10.0,SW,15.0,-,N/A,,Clear,230,2013-03-14 17:15:00
11:35 AM,55.4,39.2,54,30.06,10.0,SW,16.1,21.9,N/A,,Clear,230,2013-03-14 17:35:00
11:55 AM,55.4,39.2,54,30.06,10.0,SW,12.7,-,N/A,,Clear,230,2013-03-14 17:55:00
12:15 PM,55.4,39.2,54,30.05,10.0,WSW,13.8,-,N/A,,Clear,240,2013-03-14 18:15:00
12:35 PM,57.2,39.2,51,30.05,10.0,WSW,12.7,-,N/A,,Clear,240,2013-03-14 18:35:00
12:55 PM,57.2,39.2,51,30.04,10.0,WSW,12.7,-,N/A,,Clear,240,2013-03-14 18:55:00
1:15 PM,59.0,37.4,45,30.04,10.0,WSW,10.4,16.1,N/A,,Clear,250,2013-03-14 19:15:00
1:55 PM,59.0,35.6,42,30.01,10.0,West,9.2,19.6,N/A,,Clear,260,2013-03-14 19:55:00
2:15 PM,62.6,35.6,37,30.01,10.0,West,15.0,19.6,N/A,,Clear,280,2013-03-14 20:15:00
2:35 PM,62.6,35.6,37,30.00,10.0,West,17.3,21.9,N/A,Rain,Light Rain,280,2013-03-14 20:35:00
2:55 PM,62.6,35.6,37,30.00,10.0,West,17.3,24.2,N/A,,Clear,280,2013-03-14 20:55:00
3:15 PM,62.6,35.6,37,30.00,10.0,WNW,17.3,23.0,N/A,,Clear,290,2013-03-14 21:15:00
3:35 PM,62.6,35.6,37,30.00,10.0,WNW,13.8,-,N/A,,Clear,290,2013-03-14 21:35:00
3:55 PM,62.6,35.6,37,30.00,10.0,NW,15.0,24.2,N/A,Rain,Light Rain,310,2013-03-14 21:55:00
4:15 PM,59.0,37.4,45,30.00,10.0,NW,10.4,-,N/A,,Partly Cloudy,320,2013-03-14 22:15:00
4:35 PM,59.0,41.0,51,30.00,10.0,North,11.5,-,N/A,,Scattered Clouds,10,2013-03-14 22:35:00
4:55 PM,57.2,41.0,55,30.00,10.0,North,13.8,-,N/A,Rain,Light Rain,10,2013-03-14 22:55:00
5:15 PM,53.6,41.0,62,30.01,10.0,NNE,8.1,-,N/A,Rain,Light Rain,20,2013-03-14 23:15:00
5:35 PM,51.8,41.0,67,30.01,10.0,North,8.1,-,N/A,,Overcast,350,2013-03-14 23:35:00
5:55 PM,48.2,41.0,76,30.01,10.0,North,11.5,-,N/A,,Overcast,360,2013-03-14 23:55:00
6:15 PM,46.4,41.0,81,30.02,10.0,North,11.5,16.1,N/A,,Overcast,350,2013-03-15 00:15:00
6:35 PM,44.6,39.2,81,30.02,10.0,North,9.2,-,N/A,,Overcast,350,2013-03-15 00:35:00
6:55 PM,41.0,37.4,87,30.02,10.0,North,10.4,-,N/A,,Overcast,360,2013-03-15 00:55:00
7:15 PM,39.2,37.4,93,30.01,10.0,North,6.9,-,N/A,,Overcast,360,2013-03-15 01:15:00
7:35 PM,37.4,35.6,93,30.01,10.0,North,9.2,-,N/A,,Overcast,360,2013-03-15 01:35:00
7:55 PM,35.6,33.8,93,30.01,10.0,North,9.2,-,N/A,,Overcast,360,2013-03-15 01:55:00
8:15 PM,35.6,33.8,93,30.02,9.0,North,9.2,-,N/A,,Overcast,350,2013-03-15 02:15:00
8:35 PM,33.8,32.0,93,30.02,7.0,North,10.4,-,N/A,,Overcast,360,2013-03-15 02:35:00
8:55 PM,32.0,32.0,100,30.02,5.0,North,8.1,-,N/A,,Overcast,10,2013-03-15 02:55:00
9:15 PM,32.0,32.0,100,30.02,5.0,North,8.1,-,N/A,,Overcast,10,2013-03-15 03:15:00
9:35 PM,32.0,32.0,100,30.03,4.0,North,8.1,-,N/A,,Overcast,10,2013-03-15 03:35:00
9:55 PM,32.0,32.0,100,30.03,4.0,North,9.2,-,N/A,,Overcast,10,2013-03-15 03:55:00
10:15 PM,32.0,32.0,100,30.02,4.0,North,8.1,-,N/A,,Overcast,10,2013-03-15 04:15:00
10:35 PM,32.0,32.0,100,30.01,4.0,NNE,5.8,-,N/A,,Overcast,30,2013-03-15 04:35:00
10:55 PM,32.0,32.0,100,30.00,3.0,ENE,4.6,-,N/A,,Overcast,60,2013-03-15 04:55:00
11:15 PM,32.0,32.0,100,30.00,3.0,Calm,Calm,-,N/A,,Overcast,0,2013-03-15 05:15:00
11:35 PM,32.0,32.0,100,29.99,4.0,ESE,3.5,-,N/A,,Overcast,110,2013-03-15 05:35:00
11:55 PM,32.0,32.0,100,29.99,4.0,ESE,4.6,-,N/A,,Overcast,110,2013-03-15 05:55:00